[[{"header":{"parameterUnit":"m.s-1","parameterCategory":1,"la1":30.2991,"la2":30.254,"lo1":-89.0895,"lo2":-89.0444,"dy":0.0017,"dx":0.0017,"nx":28,"ny":28,"refTime":"2026-03-04T03:00:00:Z","depth":0,"parameterNumber":2,"parameterNumberName":"U-component_of_WINDS"},"data":[0,0,0,0,0,0,0,0,0,0,0,0,0,0,0,0,0,0,0,0,0,0,0,0,0,0,0,0,0,0,0,0,0,0,0,0,0,0,0,0,0,0,0,0,0,0,0,0,0,0,0,0,0,0,0,0,0,0,-4.3855,-4.3856,0,-4.3911,-4.3912,-4.3913,-4.3858,-4.3856,-4.3854,-4.3852,-4.3907,-4.3911,-4.3914,0,0,0,0,0,0,0,0,0,0,0,0,0,-4.37,-4.3703,-4.3855,-4.3856,-4.3856,-4.3911,-4.3912,-4.3913,-4.3859,-4.3856,-4.3853,-4.3851,-4.3906,-4.391,-4.3915,0,0,0,0,0,0,0,0,0,0,0,0,0,-4.3763,-4.3704,-4.3855,-4.3836,-4.3835,-4.3911,-4.3912,-4.3913,-4.3859,-4.3856,-4.3853,-4.385,-4.3905,-4.391,-4.3915,-4.4012,0,0,-4.3931,-4.3933,0,0,0,0,0,0,0,0,-4.3759,-4.3769,-4.3838,-4.3837,-4.3836,-4.3875,-4.3878,-4.3946,-4.386,-4.385,-4.3852,-4.3848,-4.3899,-4.3904,-4.3922,-4.4015,-4.4017,-4.3932,-4.3935,-4.3937,-4.3938,0,0,0,0,0,0,0,-4.3755,-4.3766,-4.3877,-4.3839,-4.3838,-4.3825,-4.383,-4.3891,-4.3892,-4.385,-4.3847,-4.3854,-4.3898,-4.3917,-4.3923,-4.4018,-4.3931,-4.3936,-4.3939,-4.3941,-4.4195,-4.4198,0,0,0,0,0,0,-4.3753,-4.3763,-4.3875,-4.3879,-4.3789,-4.383,-4.3836,-4.3866,-4.3891,-4.3892,-4.3857,-4.3851,-4.391,-4.3917,-4.3925,-4.404,-4.3937,-4.3942,-4.3945,-4.4191,-4.4195,-4.4199,0,0,0,0,0,0,-4.375,-4.3764,-4.3873,-4.382,-4.3833,-4.3836,-4.387,-4.3868,-4.3887,-4.3896,-4.3896,-4.3876,-4.3908,-4.3917,-4.3991,-4.4041,-4.3944,-4.3949,-4.4187,-4.4192,-4.4197,-4.4271,0,0,0,0,0,0,-4.3746,-4.3763,-4.3799,-4.3821,-4.3836,-4.3939,-4.3873,-4.3872,-4.3897,-4.389,-4.3914,-4.3915,-4.3906,-4.3984,-4.3997,-4.4047,-4.3953,-4.4182,-4.4189,-4.4196,-4.4264,-4.4279,-4.4291,0,0,0,0,0,-4.374,-4.3817,-4.3802,-4.3815,-4.3882,-4.3942,-4.395,-4.3939,-4.3901,-4.3938,-4.3944,-4.3914,-4.4035,-4.3992,-4.4006,-4.4058,-4.4179,-4.4187,-4.4195,-4.4258,-4.4276,-4.429,0,0,0,0,0,0,-4.3799,-4.382,-4.3802,-4.3889,-4.3914,-4.3933,-4.3978,-4.3957,-4.3993,-4.3985,-4.3969,-4.3975,-4.4053,-4.4063,-4.4016,-4.4154,-4.4101,-4.4112,-4.4144,-4.4161,-4.4173,-4.4168,-4.3957,0,0,0,0,0,-4.3823,-4.3871,-4.3885,-4.396,-4.3974,-4.3975,-4.4,-4.399,-4.4015,-4.4025,-4.4036,-4.4062,-4.4105,-4.4134,-4.4174,-4.4267,-4.4271,-4.431,-4.4323,-4.4334,-4.4343,-4.4393,-4.4411,-4.4226,-4.4226,-4.4226,0,0,-4.3871,-4.3888,-4.3919,-4.3973,-4.3991,-4.404,-4.3984,-4.4038,-4.4074,-4.4033,-4.4103,-4.4113,-4.4141,-4.4225,-4.4262,-4.4235,-4.4396,-4.4344,-4.4353,-4.4356,-4.4403,-4.4421,-4.4436,-4.4231,-4.423,-4.4229,0,0,-4.3983,-4.4002,-4.4066,-4.4087,-4.4116,-4.4116,-4.4132,-4.4155,-4.416,-4.4231,-4.4202,-4.4245,-4.432,-4.4341,-4.4362,-4.4487,-4.446,-4.4501,-4.4568,-4.4617,-4.4632,-4.4645,-4.4688,-4.4704,-4.451,-4.451,-4.4511,0,-4.4039,-4.4112,-4.4101,-4.4159,-4.4183,-4.4151,-4.4216,-4.4236,-4.4277,-4.4295,-4.4266,-4.4361,-4.4377,-4.4465,-4.4496,-4.4514,-4.4532,-4.4496,-4.4631,-4.4644,-4.4655,-4.4697,-4.4713,-4.4515,-4.4514,-4.4514,-4.4513,0,-4.4179,-4.4231,-4.4279,-4.4321,-4.4352,-4.4413,-4.4411,-4.4444,-4.4432,-4.4436,-4.4509,-4.4529,-4.4573,-4.4594,-4.4582,-4.4681,-4.4664,-4.4633,-4.4578,-4.4678,-4.4716,-4.4732,-4.4521,-4.452,-4.4518,-4.4517,0,0,-4.4325,-4.4364,-4.4382,-4.4401,-4.4433,-4.4473,-4.4533,-4.4578,-4.4606,-4.4637,-4.4686,-4.4753,-4.4725,-4.4749,-4.4739,-4.4783,-4.4881,-4.4747,-4.4747,-4.477,-4.4991,-4.5012,-4.5031,-4.4865,-4.4868,-4.487,-4.4988,0,-4.4438,-4.4543,-4.4537,-4.4635,-4.4683,-4.4655,-4.4708,-4.4733,-4.474,-4.4781,-4.4788,-4.4835,-4.4795,-4.481,-4.4852,-4.486,-4.4924,-4.4851,-4.491,-4.4912,-4.4901,-4.5051,-4.5073,-4.5183,-4.5003,-4.5006,-4.5008,0,-4.4582,-4.4619,-4.4723,-4.4749,-4.4769,-4.4817,-4.4858,-4.4899,-4.4928,-4.4929,-4.4958,-4.4942,-4.5004,-4.4951,-4.5035,-4.4985,-4.501,-4.5018,-4.5022,-4.5024,-4.4964,-4.5056,-4.5218,-4.5234,-4.5032,-4.503,-4.5028,0,-4.4677,-4.4753,-4.4825,-4.4843,-4.4876,-4.491,-4.4926,-4.4952,-4.498,-4.5017,-4.5035,-4.5078,-4.5101,-4.5135,-4.5132,-4.5094,-4.5218,-4.5164,-4.522,-4.522,-4.5244,-4.5242,-4.541,-4.5264,-4.5264,-4.5264,-4.5263,0,-4.4801,-4.4865,-4.4869,-4.4912,-4.4984,-4.4978,-4.5049,-4.506,-4.5085,-4.5131,-4.511,-4.5153,-4.5148,-4.5192,-4.519,-4.526,-4.5271,-4.5274,-4.5272,-4.5274,-4.5274,-4.5288,-4.5279,-4.5268,-4.5267,-4.5266,-4.5266,0,-4.4917,-4.4923,-4.4999,-4.5026,-4.5034,-4.5086,-4.5108,-4.515,-4.5157,-4.5215,-4.5229,-4.5238,-4.5289,-4.5291,-4.5349,-4.5348,-4.5433,-4.5424,-4.5423,-4.542,-4.5475,-4.547,-4.5656,-4.568,-4.5521,-4.5522,-4.5524,0,-4.4995,-4.5044,-4.5077,-4.5107,-4.5125,-4.5173,-4.5202,-4.5199,-4.523,-4.5269,-4.5307,-4.5357,-4.5395,-4.5478,-4.549,-4.5535,-4.5526,-4.5588,-4.5532,-4.5533,-4.5525,-4.5521,-4.5525,-4.5598,-4.56,-4.5601,-4.5602,0,-4.5132,-4.5133,-4.5176,-4.5221,-4.5257,-4.5292,-4.5324,-4.535,-4.5351,-4.5387,-4.544,-4.5471,-4.5532,-4.5581,-4.5625,-4.5641,-4.5622,-4.5621,-4.5636,-4.5637,-4.5634,-4.5635,-4.545,-4.5616,-4.5614,-4.5613,-4.5613,-4.5612,-4.523,-4.5272,-4.5303,-4.5352,-4.5377,-4.5409,-4.545,-4.5463,-4.5507,-4.5556,-4.5553,-4.5611,-4.5641,-4.5699,-4.5719,-4.5765,-4.5743,-4.5765,-4.577,-4.5775,-4.578,-4.563,-4.5773,-4.5773,-4.5773,-4.5772,-4.5772,0,-4.5364,-4.5383,-4.5429,-4.5476,-4.5516,-4.5497,-4.5533,-4.5567,-4.5619,-4.5649,-4.5689,-4.5751,-4.5799,-4.5817,-4.5864,-4.5898,-4.589,-4.591,-4.5906,-4.591,-4.5798,-4.5779,-4.5915,-4.5915,-4.5915,-4.5915,-4.5915,-4.5915,-4.5438,-4.5509,-4.5515,-4.5599,-4.5617,-4.5675,-4.5697,-4.5727,-4.5751,-4.5821,-4.5862,-4.5874,-4.5899,-4.5949,-4.5993,-4.5997,-4.6015,-4.6038,-4.6038,-4.5932,-4.5918,-4.5904,-4.5886,-4.6042,-4.6042,-4.6146,-4.6147,-4.6148]},{"header":{"parameterUnit":"m.s-1","parameterCategory":1,"la1":30.2991,"la2":30.254,"lo1":-89.0895,"lo2":-89.0444,"dy":0.0017,"dx":0.0017,"nx":28,"ny":28,"refTime":"2026-03-04T03:00:00:Z","depth":0,"parameterNumber":3,"parameterNumberName":"V-component_of_WINDS"},"data":[0,0,0,0,0,0,0,0,0,0,0,0,0,0,0,0,0,0,0,0,0,0,0,0,0,0,0,0,0,0,0,0,0,0,0,0,0,0,0,0,0,0,0,0,0,0,0,0,0,0,0,0,0,0,0,0,0,0,1.7129,1.7129,0,1.7136,1.7136,1.7136,1.713,1.713,1.713,1.713,1.7134,1.7134,1.7134,0,0,0,0,0,0,0,0,0,0,0,0,0,1.7112,1.7112,1.7129,1.7129,1.7129,1.7136,1.7136,1.7136,1.713,1.713,1.713,1.713,1.7134,1.7134,1.7134,0,0,0,0,0,0,0,0,0,0,0,0,0,1.7119,1.7112,1.7129,1.7127,1.7127,1.7136,1.7136,1.7136,1.713,1.713,1.713,1.7129,1.7133,1.7134,1.7134,1.7144,0,0,1.7136,1.7136,0,0,0,0,0,0,0,0,1.7118,1.7119,1.7128,1.7128,1.7127,1.7132,1.7131,1.7138,1.713,1.7129,1.713,1.7129,1.7133,1.7134,1.7135,1.7144,1.7144,1.7136,1.7136,1.7136,1.7136,0,0,0,0,0,0,0,1.7118,1.7119,1.7132,1.7128,1.7128,1.7126,1.7127,1.7132,1.7133,1.7129,1.7129,1.713,1.7133,1.7135,1.7135,1.7144,1.7136,1.7136,1.7136,1.7137,1.7164,1.7164,0,0,0,0,0,0,1.7118,1.7119,1.7131,1.7132,1.7122,1.7127,1.7128,1.7131,1.7133,1.7133,1.713,1.713,1.7134,1.7135,1.7136,1.7149,1.7136,1.7137,1.7137,1.7164,1.7164,1.7165,0,0,0,0,0,0,1.7117,1.7119,1.7131,1.7125,1.7127,1.7128,1.7131,1.7131,1.7133,1.7133,1.7133,1.7132,1.7134,1.7135,1.7143,1.7149,1.7137,1.7137,1.7163,1.7164,1.7164,1.7174,0,0,0,0,0,0,1.7117,1.7119,1.7122,1.7125,1.7127,1.7138,1.7131,1.7131,1.7134,1.7134,1.7135,1.7135,1.7134,1.7142,1.7143,1.7149,1.7138,1.7162,1.7163,1.7164,1.7173,1.7175,1.7176,0,0,0,0,0,1.7116,1.7123,1.7122,1.7124,1.7131,1.7138,1.7139,1.7138,1.7135,1.7138,1.7139,1.7135,1.7148,1.7143,1.7144,1.715,1.7162,1.7163,1.7164,1.7172,1.7175,1.7176,0,0,0,0,0,0,1.7119,1.7124,1.7123,1.7131,1.7135,1.7138,1.7142,1.714,1.7144,1.7143,1.7141,1.7142,1.7151,1.7151,1.7145,1.7161,1.7154,1.7156,1.716,1.7162,1.7164,1.7164,1.7138,0,0,0,0,0,1.7121,1.7127,1.713,1.7137,1.7139,1.7141,1.7143,1.7143,1.7146,1.7147,1.7148,1.7151,1.7156,1.7159,1.7164,1.7174,1.7175,1.7179,1.718,1.7182,1.7183,1.7191,1.7193,1.7168,1.7168,1.7168,0,0,1.7124,1.7128,1.7131,1.7138,1.7141,1.7147,1.7142,1.7148,1.7153,1.7148,1.7156,1.7157,1.716,1.717,1.7174,1.7171,1.719,1.7183,1.7184,1.7184,1.7192,1.7194,1.7196,1.7169,1.7168,1.7168,0,0,1.7134,1.7136,1.7144,1.7147,1.7152,1.7154,1.7156,1.716,1.7161,1.717,1.7167,1.7173,1.7181,1.7184,1.7187,1.7202,1.7199,1.7203,1.7211,1.7219,1.7221,1.7223,1.723,1.7232,1.7204,1.7204,1.7204,0,1.7136,1.7146,1.7147,1.7155,1.7159,1.7157,1.7165,1.7168,1.7174,1.7177,1.7174,1.7186,1.7188,1.7199,1.7203,1.7205,1.7208,1.7202,1.7221,1.7223,1.7224,1.7231,1.7233,1.7205,1.7205,1.7204,1.7204,0,1.7151,1.7158,1.7163,1.7171,1.7176,1.7183,1.7186,1.7191,1.7191,1.7193,1.7203,1.7206,1.7212,1.7214,1.7213,1.7227,1.7225,1.7221,1.7214,1.7227,1.7233,1.7236,1.7205,1.7205,1.7205,1.7205,0,0,1.7159,1.7171,1.7173,1.7178,1.7185,1.719,1.7199,1.7207,1.7211,1.7216,1.7224,1.7233,1.7231,1.7234,1.7233,1.724,1.7254,1.7236,1.7236,1.724,1.7271,1.7275,1.7277,1.7253,1.7253,1.7253,1.7272,0,1.717,1.7186,1.7189,1.7202,1.721,1.721,1.7218,1.7224,1.7227,1.7234,1.7236,1.7243,1.7239,1.7241,1.7248,1.7251,1.726,1.725,1.726,1.7261,1.726,1.728,1.7283,1.73,1.7274,1.7274,1.7274,0,1.7184,1.7192,1.7207,1.7216,1.722,1.7227,1.7236,1.7242,1.7249,1.7251,1.7257,1.7257,1.7266,1.726,1.7274,1.7267,1.7272,1.7274,1.7275,1.7276,1.7268,1.7282,1.7305,1.7308,1.7278,1.7278,1.7277,0,1.7191,1.7205,1.7217,1.722,1.7231,1.7236,1.7241,1.7248,1.7254,1.7261,1.7265,1.7274,1.7278,1.7285,1.7288,1.7282,1.7302,1.7296,1.7305,1.7305,1.7308,1.7308,1.7332,1.7311,1.7311,1.7311,1.7311,0,1.7202,1.7212,1.722,1.7227,1.7239,1.7243,1.7254,1.7258,1.7265,1.7274,1.7274,1.7282,1.7285,1.7293,1.7295,1.7308,1.731,1.7312,1.7312,1.7312,1.7312,1.7315,1.7314,1.7311,1.7311,1.7311,1.7311,0,1.7211,1.7217,1.723,1.724,1.7243,1.7251,1.726,1.7268,1.7272,1.7283,1.7286,1.7292,1.7303,1.7306,1.7318,1.732,1.7335,1.7334,1.7333,1.7333,1.7343,1.7342,1.737,1.7375,1.735,1.735,1.735,0,1.7218,1.7226,1.7238,1.7245,1.725,1.726,1.7267,1.7272,1.7279,1.729,1.7296,1.7307,1.7316,1.7334,1.7339,1.7349,1.7349,1.7358,1.735,1.7351,1.7351,1.735,1.7352,1.7359,1.736,1.736,1.736,0,1.723,1.7234,1.7244,1.7256,1.7264,1.7274,1.7282,1.7288,1.7294,1.7302,1.7314,1.7322,1.7336,1.7347,1.7359,1.7363,1.7363,1.7363,1.7366,1.7366,1.7365,1.7367,1.7338,1.7362,1.7362,1.7362,1.7361,1.7361,1.7239,1.7247,1.7258,1.727,1.7278,1.7287,1.7296,1.7303,1.7313,1.7326,1.7329,1.7342,1.7352,1.7367,1.7373,1.7384,1.7381,1.7385,1.7386,1.7387,1.7388,1.7364,1.7385,1.7385,1.7385,1.7385,1.7385,0,1.7252,1.726,1.7272,1.7286,1.7296,1.7297,1.7308,1.7316,1.7328,1.7338,1.7348,1.7363,1.7375,1.7383,1.7396,1.7403,1.7404,1.7406,1.7406,1.7408,1.7389,1.7386,1.7406,1.7406,1.7406,1.7406,1.7406,1.7406,1.726,1.7275,1.7281,1.73,1.7308,1.7322,1.7329,1.7338,1.7346,1.7364,1.7375,1.7381,1.739,1.7404,1.7416,1.7418,1.7423,1.7426,1.7428,1.7411,1.7408,1.7406,1.7404,1.7427,1.7427,1.7446,1.7446,1.7446]}]]